Regional Weather Roundup
Issued by NWS

Home | Current Version | Previous Version | Text Only | Print | Product List | Glossary On
Versions: 1 2 3 4 5 6 7 8 9 10 11 12 13 14 15 16 17 18 19 20 21 22 23 24 25 26 27 28 29 30 31 32 33 34 35 36 37 38 39 40 41 42 43 44 45 46 47 48 49 50
000
ASUS46 KLOX 022112
RWRCA

SOUTHERN CALIFORNIA WEATHER ROUNDUP
NATIONAL WEATHER SERVICE OXNARD CALIFORNIA
100 PM PST MON MAR 02 2015

NOTE: "FAIR" INDICATES FEW OR NO CLOUDS BELOW 12,000 FEET WITH NO
SIGNIFICANT WEATHER AND/OR OBSTRUCTIONS TO VISIBILITY.

  -  STATIONS PRECEEDED BY AN ASTERISK (*) ARE NOT NWS OR FAA
     STATIONS AND ARE NOT SUBJECT TO NWS AND FAA QUALITY CONTROL.

CAZ041-042-087-022200-
LA AND ORANGE COUNTY COASTAL AREAS


CITY           SKY/WX    TMP DP  RH WIND       PRES   REMARKS
L.A. DOWNTOWN  MOSUNNY   59  42  53 VRB3      29.90F
L.A. AIRPORT   PTSUNNY   59  41  51 W10       29.91F
LONG BEACH     MOSUNNY   58  45  62 SE7       29.92F

CITY           SKY/WX    TMP DP  RH WIND       PRES   REMARKS
AVALON           N/A     55 N/A N/A MISG        N/A
FULLERTON      MOSUNNY   59  44  57 MISG      29.91F
*GETTY CENTER    N/A    N/A N/A N/A SW12G20     N/A
HAWTHORNE      PTSUNNY   60  40  47 VRB6      29.91F
*LOS ALAMITOS  MOSUNNY   58  47  68 VRB7      29.91F
*REDONDO BEACH   N/A     63  48  57 SW3       29.91F
SANTA ANA      MOSUNNY   60  44  55 S3        29.92F
STA MONICA APT MOSUNNY   61  38  42 SW10      29.91F
TORRANCE       MOSUNNY   61  48  63 SE12      29.92F
*UCLA            N/A     59  36  41 S13       29.88S

$$

CAZ547-548-048-022200-
LA COUNTY VALLEYS AND INLAND EMPIRE


CITY           SKY/WX    TMP DP  RH WIND       PRES   REMARKS
BURBANK        MOSUNNY   57  40  52 S6        29.89F
VAN NUYS       MOSUNNY   53  42  66 S21       29.89F

CITY           SKY/WX    TMP DP  RH WIND       PRES   REMARKS
CORONA AIRPORT MOCLDY    55  46  71 CALM      29.92F
CHINO          PTSUNNY   54  43  66 CALM      29.92F
MARCH AFB      PTSUNNY   48  45  87 E6        29.91F
*NORTHRIDGE      N/A     55  39  54 S3G9        N/A
ONTARIO        PTSUNNY   51  43  74 VRB5      29.91F
*PASADENA        N/A     55  46  71 E2          N/A
POMONA         MOSUNNY   54  43  66 S9        29.93
RIVERSIDE      CLOUDY    51  44  77 VRB3      29.91F
SAN BERNARDINO LGT RAIN  46  39  76 S7        29.92R
*SAN GABRIEL     N/A     57  37  47 CALM      29.89S
*WHITEMAN AP   NOT AVBL

$$

CAZ054-055-022200-
LA AND SAN BERNARDINO COUNTY MOUNTAINS


CITY           SKY/WX    TMP DP  RH WIND       PRES   REMARKS
*BIG BEAR AIRP LGT SNOW  30  27  86 W8        29.84S VSB 3/4 WCI  23
*CHILAO          N/A     40  32  72 S14         N/A  WCI  32
MT WILSON NWS    N/A     32  32 100 W10         N/A  WCI  24
SANDBERG       PTSUNNY   47  38  71 S15G23    29.83F
*WARM SPRINGS    N/A     42  42 100 SW2         N/A

$$

CAZ028-029-059-060-099-022200-
ANTELOPE VALLEY AND SURROUNDING AREAS


CITY           SKY/WX    TMP DP  RH WIND       PRES   REMARKS
LANCASTER      SUNNY     54  33  45 SW17G24   29.84F
PALMDALE       SUNNY     53  33  46 SW21      29.84F

CITY           SKY/WX    TMP DP  RH WIND       PRES   REMARKS
29 PALMS       PTSUNNY   55  36  48 S13G22    29.90F
BARSTOW/DAGGET MOSUNNY   60  27  28 SW14G25   29.82F
BISHOP         PTSUNNY   52  21  29 VRB5      29.74F
CHINA LAKE     PTSUNNY   55  35  47 SW6       29.77F
EDWARDS AFB    MOSUNNY   56  31  38 SW16G26   29.81F
MOJAVE         FAIR      52  34  50 W16       29.82F
NEEDLES        MOSUNNY   62  43  49 S13       29.84F
VICTORVILLE    PTSUNNY   54  32  43 S15G21    29.82F

$$

CAZ039-040-022200-
VENTURA AND SANTA BARBARA COUNTY COAST


CITY           SKY/WX    TMP DP  RH WIND       PRES   REMARKS
CAMARILLO      PTSUNNY   60  46  59 S9G18     29.90F
OXNARD AIRPORT MOSUNNY   60  45  57 SW12      29.91F
*POINT MUGU    MOSUNNY   62  49  62 S9        29.91F
SBA APT/GOLETA PTSUNNY   56  48  74 NE6       29.91F
*SANTA BARBARA   N/A     54  46  75 CALM      29.99F
*VENTURA         N/A     62  43  49 CALM      29.93F

$$

CAZ044-045-022200-
VENTURA COUNTY VALLEYS


CITY           SKY/WX    TMP DP  RH WIND       PRES   REMARKS
*SIMI VALLEY     N/A     57  45  65 SW3       29.87F
*OJAI            N/A     50  47  89 E2        29.87F
*FILLMORE        N/A     53  49  87 CALM      29.81F

$$

CAZ053-022200-
VENTURA COUNTY MOUNTAINS


CITY           SKY/WX    TMP DP  RH WIND       PRES   REMARKS
*LOCKWOOD VLY    N/A     41  32  70 MISG        N/A
*ROSE VALLEY     N/A     46  39  76 MISG        N/A

$$

CAZ034-035-036-022200-
CENTRAL COAST AND SANTA YNEZ VALLEY


CITY           SKY/WX    TMP DP  RH WIND       PRES   REMARKS
SAN LUIS OBISP PTSUNNY   57  47  69 SE8       29.87F
SANTA MARIA    PTSUNNY   55  46  71 SE7       29.90F

CITY           SKY/WX    TMP DP  RH WIND       PRES   REMARKS
*CAL POLY SLO    N/A     57  48  72 SE6         N/A
*LOMPOC        CLOUDY    57  43  58 W3        29.90F
*PISMO BEACH     N/A     57  49  76 SW5       29.90F
*SANTA YNEZ    LGT RAIN  52  43  71 NW7       29.90R

$$

CAZ037-038-051-022200-
SAN LUIS OBISPO COUNTY INTERIOR AND CUYAMA VALLEY


CITY           SKY/WX    TMP DP  RH WIND       PRES   REMARKS
*CUYAMA          N/A     51  38  61 CALM      29.85F
PASO ROBLES    PTSUNNY   60  42  51 SW15      29.84F

$$

CAZ032-033-061-022200-
SOUTHERN DESERTS


CITY           SKY/WX    TMP DP  RH WIND       PRES   REMARKS
BLYTHE         MOSUNNY   62  44  51 SW16G22   29.89F
IMPERIAL       TSTM      55  48  77 W20G37    29.91S
PALM SPRINGS   PTSUNNY   62  43  49 VRB6      29.89F
THERMAL        CLOUDY    62  50  64 SE9       29.88F

$$

ELSEWHERE ACROSS THE WESTERN UNITED STATES AND MEXICO


CITY           SKY/WX    TMP DP  RH WIND       PRES   REMARKS
DENVER, CO     PTSUNNY   31  22  69 N5        29.73F HAZE    WCI  26
GRAND CANYON,  SNOW      31  29  92 SW13      29.81F VSB 1/2 WCI  21
HONOLULU, HI   MOSUNNY   82  64  54 NE12G17   30.04F
KAHULUI, MAUI  MOSUNNY   81  68  65 NE18      30.06R
LAKE TAHOE, CA FLURRIES  37  24  59 S6        29.76S WCI  32
LAS VEGAS, NV  PTSUNNY   57  36  45 SW21G29   29.73F
MAMMOTH LAKES, CLOUDY    36  27  69 E9        29.74F WCI  29
MEXICO CITY, M SUNNY     79  25  13 S6        30.26F
PHOENIX, AZ    LGT RAIN  53  49  86 NW8       29.91F
PORTLAND, OR   MOSUNNY   52  39  61 W9        29.98F
RENO, NV       PTSUNNY   45  26  47 NW18      29.76F
SALT LAKE CITY LGT RAIN  41  35  79 SE5       29.66F
SAN DIEGO, CA  PTSUNNY   60  44  55 SW13      29.96F
SAN FRANCISCO, PTSUNNY   58  45  62 W9G20     29.81F
SAN JOSE, CA   CLOUDY    58  45  62 SE6       29.81F
SEATTLE, WA    PTSUNNY   48  36  63 N8        30.03F
TIJUANA, MEX   PTSUNNY   57  41  54 SW10      29.97F

$$

STATION/POSITION TIME  TEMP    WIND        PRES    VSBY  WAVE
                       AIR SEA DIR/SP/G                  HT/PER
                 (UTC) (F)     (DEG/KT/KT) (MB)    (MI)  (FT/S)
POINT ARGUELLO B NOT AVBL
WEST SANTA BARBA 2100   56 59  280/  6/  8 1012.1F         5/10
POINT CONCEPTION NOT AVBL
EAST SANTA BARBA NOT AVBL
SANTA MONICA BAY 2100   57 63  260/  4/  6 1013.2F         2/12



USA.gov is the U.S. government's official web portal to all federal, state and local government web resources and services.